QPF
0.00 0.00 0.00 0.00 0.00 0.00 0.00 0.01 0.01 0.01 0.02 0.02 0.01 0.02 0.02 0.02 0.02 0.02 0.01 0.02 0.02 0.03 0.03 0.02 0.01 0.01 0.02 0.02 0.02 0.03 0.03 0.03 0.03 0.03 0.03 0.03 0.03 0.03 0.02 0.02 0.02 0.02 0.03 0.02
0.00 0.00 0.00 0.00 0.00 0.00 0.00 0.00 0.00 0.01 0.01 0.00 0.01 0.03 0.03 0.03 0.03 0.02 0.02 0.02 0.01 0.01 0.01 0.01 0.01 0.01 0.01 0.02 0.02 0.03 0.03 0.03 0.04 0.04 0.04 0.03 0.03 0.02 0.02 0.02 0.02 0.02 0.03 0.02
0.00 0.00 0.00 0.00 0.00 0.00 0.00 0.00 0.00 0.01 0.01 0.01 0.01 0.02 0.02 0.02 0.03 0.03 0.02 0.01 0.01 0.01 0.01 0.01 0.01 0.01 0.01 0.02 0.03 0.04 0.04 0.04 0.04 0.05 0.05 0.04 0.03 0.02 0.02 0.02 0.02 0.03 0.03 0.03
0.01 0.01 0.01 0.01 0.00 0.00 0.00 0.00 0.00 0.01 0.01 0.01 0.01 0.02 0.02 0.03 0.04 0.03 0.02 0.01 0.01 0.01 0.01 0.01 0.01 0.01 0.04 0.05 0.04 0.04 0.05 0.05 0.06 0.05 0.05 0.05 0.04 0.03 0.03 0.03 0.03 0.03 0.03 0.03
0.01 0.02 0.01 0.01 0.00 0.00 0.01 0.01 0.01 0.01 0.01 0.01 0.01 0.02 0.03 0.03 0.04 0.04 0.02 0.02 0.01 0.01 0.01 0.01 0.01 0.01 0.03 0.07 0.05 0.04 0.05 0.06 0.07 0.06 0.06 0.07 0.06 0.05 0.05 0.04 0.04 0.03 0.03 0.03
0.02 0.02 0.02 0.02 0.01 0.01 0.01 0.03 0.02 0.01 0.01 0.02 0.03 0.04 0.04 0.03 0.04 0.04 0.03 0.02 0.01 0.01 0.01 0.01 0.01 0.01 0.02 0.03 0.03 0.04 0.05 0.07 0.08 0.08 0.07 0.07 0.09 0.07 0.05 0.04 0.04 0.03 0.03 0.03
0.02 0.03 0.03 0.02 0.02 0.03 0.04 0.04 0.02 0.02 0.02 0.02 0.03 0.04 0.04 0.03 0.03 0.03 0.02 0.02 0.01 0.01 0.01 0.01 0.01 0.02 0.02 0.02 0.03 0.04 0.06 0.08 0.09 0.08 0.08 0.07 0.07 0.06 0.05 0.04 0.03 0.03 0.03 0.03
0.03 0.04 0.05 0.03 0.04 0.06 0.05 0.03 0.02 0.02 0.02 0.02 0.03 0.03 0.02 0.03 0.04 0.03 0.02 0.02 0.01 0.01 0.01 0.01 0.01 0.01 0.02 0.01 0.02 0.04 0.05 0.07 0.08 0.09 0.09 0.08 0.08 0.06 0.05 0.04 0.03 0.03 0.03 0.03
0.04 0.04 0.04 0.03 0.03 0.04 0.04 0.05 0.04 0.03 0.03 0.03 0.04 0.03 0.03 0.03 0.03 0.03 0.02 0.02 0.01 0.01 0.01 0.01 0.01 0.01 0.02 0.02 0.02 0.03 0.04 0.05 0.07 0.07 0.08 0.07 0.06 0.05 0.05 0.04 0.04 0.04 0.03 0.02
0.03 0.04 0.04 0.02 0.02 0.02 0.02 0.03 0.04 0.05 0.05 0.05 0.05 0.03 0.03 0.03 0.02 0.02 0.02 0.01 0.02 0.02 0.02 0.03 0.02 0.01 0.02 0.02 0.02 0.03 0.04 0.04 0.05 0.06 0.06 0.07 0.06 0.05 0.04 0.04 0.04 0.04 0.03 0.02
0.03 0.02 0.02 0.02 0.01 0.01 0.01 0.01 0.01 0.02 0.03 0.04 0.05 0.04 0.03 0.03 0.02 0.02 0.01 0.02 0.02 0.02 0.04 0.03 0.02 0.03 0.03 0.02 0.02 0.02 0.03 0.04 0.03 0.03 0.05 0.08 0.07 0.06 0.05 0.05 0.05 0.04 0.03 0.04
0.02 0.01 0.01 0.01 0.01 0.01 0.00 0.00 0.01 0.01 0.01 0.01 0.01 0.02 0.03 0.04 0.03 0.02 0.02 0.03 0.03 0.03 0.04 0.03 0.02 0.03 0.03 0.03 0.03 0.02 0.02 0.03 0.05 0.03 0.03 0.05 0.06 0.06 0.07 0.07 0.07 0.06 0.04 0.04
0.01 0.01 0.01 0.01 0.01 0.00 0.00 0.00 0.01 0.01 0.01 0.01 0.01 0.02 0.03 0.04 0.03 0.02 0.02 0.03 0.04 0.03 0.03 0.03 0.03 0.03 0.03 0.03 0.04 0.04 0.03 0.04 0.04 0.04 0.03 0.02 0.03 0.03 0.03 0.04 0.05 0.05 0.04 0.03
0.01 0.01 0.01 0.01 0.01 0.00 0.00 0.00 0.01 0.01 0.01 0.01 0.01 0.03 0.04 0.05 0.04 0.02 0.03 0.04 0.05 0.04 0.02 0.02 0.02 0.03 0.03 0.02 0.02 0.03 0.03 0.05 0.06 0.05 0.04 0.04 0.03 0.02 0.02 0.02 0.02 0.03 0.03 0.03
0.01 0.01 0.02 0.02 0.01 0.00 0.00 0.01 0.01 0.01 0.01 0.01 0.02 0.03 0.04 0.04 0.04 0.02 0.02 0.04 0.04 0.03 0.02 0.01 0.02 0.02 0.02 0.02 0.02 0.02 0.02 0.03 0.05 0.06 0.06 0.06 0.05 0.04 0.03 0.02 0.02 0.02 0.02 0.02
0.01 0.00 0.01 0.01 0.01 0.01 0.01 0.01 0.01 0.01 0.01 0.02 0.03 0.04 0.03 0.04 0.03 0.02 0.02 0.03 0.03 0.03 0.02 0.01 0.02 0.01 0.01 0.01 0.01 0.01 0.02 0.02 0.03 0.04 0.05 0.07 0.06 0.05 0.05 0.04 0.04 0.03 0.03 0.02
0.01 0.01 0.01 0.00 0.01 0.01 0.01 0.01 0.01 0.01 0.01 0.02 0.03 0.04 0.04 0.03 0.02 0.01 0.01 0.02 0.02 0.02 0.02 0.01 0.01 0.01 0.01 0.01 0.01 0.01 0.02 0.02 0.02 0.03 0.04 0.05 0.06 0.06 0.07 0.07 0.05 0.05 0.05 0.05
0.01 0.01 0.01 0.01 0.01 0.01 0.01 0.01 0.01 0.01 0.02 0.03 0.03 0.03 0.02 0.01 0.01 0.01 0.01 0.01 0.01 0.02 0.01 0.01 0.01 0.01 0.01 0.01 0.01 0.01 0.01 0.01 0.01 0.02 0.03 0.03 0.04 0.05 0.06 0.07 0.07 0.06 0.06 0.05
0.01 0.01 0.01 0.01 0.02 0.02 0.02 0.02 0.01 0.01 0.01 0.01 0.01 0.01 0.01 0.01 0.01 0.01 0.01 0.01 0.01 0.02 0.01 0.01 0.01 0.01 0.01 0.01 0.01 0.01 0.01 0.00 0.00 0.01 0.01 0.02 0.03 0.04 0.04 0.05 0.06 0.05 0.05 0.05
0.01 0.02 0.03 0.03 0.03 0.02 0.01 0.01 0.01 0.01 0.01 0.01 0.01 0.01 0.01 0.01 0.01 0.01 0.01 0.01 0.02 0.01 0.01 0.01 0.00 0.00 0.01 0.01 0.01 0.01 0.01 0.01 0.00 0.00 0.00 0.01 0.02 0.02 0.03 0.03 0.04 0.04 0.04 0.04
0.01 0.01 0.02 0.02 0.02 0.02 0.01 0.01 0.01 0.01 0.01 0.01 0.01 0.01 0.01 0.01 0.01 0.01 0.01 0.01 0.01 0.01 0.01 0.01 0.01 0.01 0.01 0.01 0.00 0.00 0.01 0.01 0.00 0.00 0.00 0.01 0.01 0.01 0.01 0.02 0.03 0.03 0.03 0.03
0.00 0.00 0.00 0.01 0.01 0.01 0.01 0.01 0.01 0.01 0.01 0.01 0.01 0.01 0.01 0.00 0.00 0.00 0.00 0.01 0.01 0.01 0.00 0.00 0.01 0.01 0.01 0.01 0.01 0.01 0.00 0.00 0.00 0.01 0.00 0.00 0.01 0.02 0.02 0.03 0.03 0.03 0.03 0.03
0.02 0.01 0.02 0.02 0.01 0.01 0.01 0.01 0.01 0.01 0.01 0.01 0.01 0.00 0.00 0.00 0.00 0.01 0.01 0.01 0.00 0.00 0.00 0.00 0.00 0.01 0.01 0.00 0.00 0.01 0.00 0.00 0.00 0.00 0.01 0.01 0.01 0.02 0.02 0.02 0.04 0.04 0.04 0.03
0.03 0.03 0.03 0.02 0.01 0.01 0.02 0.02 0.02 0.02 0.01 0.01 0.01 0.01 0.01 0.01 0.01 0.01 0.00 0.00 0.00 0.00 0.00 0.00 0.01 0.01 0.01 0.01 0.01 0.01 0.01 0.01 0.01 0.01 0.01 0.01 0.01 0.02 0.02 0.01 0.02 0.03 0.03 0.03
0.03 0.04 0.04 0.04 0.03 0.03 0.03 0.03 0.03 0.03 0.02 0.01 0.02 0.01 0.01 0.01 0.01 0.01 0.01 0.01 0.01 0.01 0.01 0.01 0.01 0.01 0.01 0.01 0.01 0.01 0.01 0.01 0.01 0.01 0.01 0.01 0.01 0.01 0.01 0.01 0.01 0.01 0.00 0.01
0.03 0.03 0.04 0.04 0.04 0.04 0.04 0.04 0.04 0.04 0.03 0.02 0.02 0.01 0.01 0.01 0.01 0.01 0.01 0.01 0.01 0.01 0.01 0.01 0.01 0.01 0.00 0.00 0.01 0.01 0.01 0.01 0.00 0.00 0.00 0.01 0.01 0.01 0.01 0.01 0.01 0.01 0.00 0.01
0.03 0.03 0.03 0.04 0.04 0.05 0.05 0.05 0.06 0.06 0.04 0.02 0.02 0.02 0.01 0.01 0.01 0.01 0.01 0.01 0.01 0.01 0.01 0.01 0.01 0.01 0.01 0.01 0.01 0.00 0.00 0.00 0.00 0.00 0.00 0.01 0.01 0.01 0.01 0.01 0.01 0.01 0.01 0.01
MSLP
1009.86 1009.27 1008.75 1008.33 1008.03 1007.83 1007.71 1007.61 1007.49 1007.30 1007.00 1006.58 1006.06 1005.48 1004.89 1004.35 1003.90 1003.59 1003.43 1003.44 1003.59 1003.85 1004.20 1004.59 1005.02 1005.47 1005.92 1006.39 1006.89 1007.42 1007.98 1008.58 1009.20 1009.84 1010.48 1011.10 1011.70 1012.27 1012.81 1013.32 1013.80 1014.27 1014.72 1015.17
1010.08 1009.47 1008.91 1008.45 1008.09 1007.85 1007.69 1007.58 1007.47 1007.30 1007.05 1006.71 1006.26 1005.74 1005.19 1004.67 1004.20 1003.84 1003.61 1003.51 1003.54 1003.68 1003.91 1004.21 1004.56 1004.95 1005.38 1005.85 1006.37 1006.93 1007.54 1008.19 1008.87 1009.56 1010.24 1010.90 1011.51 1012.08 1012.60 1013.08 1013.54 1013.97 1014.40 1014.83
1010.15 1009.56 1009.02 1008.56 1008.21 1007.97 1007.82 1007.72 1007.63 1007.51 1007.31 1007.01 1006.61 1006.13 1005.61 1005.07 1004.56 1004.13 1003.79 1003.57 1003.46 1003.46 1003.56 1003.73 1003.98 1004.30 1004.68 1005.14 1005.66 1006.25 1006.90 1007.60 1008.34 1009.08 1009.81 1010.51 1011.15 1011.73 1012.26 1012.74 1013.17 1013.59 1014.00 1014.41
1010.13 1009.60 1009.12 1008.72 1008.42 1008.22 1008.11 1008.05 1008.00 1007.91 1007.74 1007.48 1007.11 1006.65 1006.11 1005.55 1004.98 1004.46 1004.01 1003.64 1003.38 1003.22 1003.16 1003.20 1003.33 1003.55 1003.87 1004.28 1004.79 1005.38 1006.06 1006.80 1007.58 1008.38 1009.15 1009.89 1010.57 1011.19 1011.73 1012.22 1012.66 1013.07 1013.47 1013.88
1010.12 1009.68 1009.29 1008.97 1008.74 1008.61 1008.54 1008.51 1008.49 1008.42 1008.27 1008.03 1007.66 1007.20 1006.64 1006.04 1005.41 1004.79 1004.23 1003.73 1003.32 1003.00 1002.79 1002.68 1002.68 1002.79 1003.01 1003.36 1003.83 1004.41 1005.08 1005.84 1006.65 1007.47 1008.29 1009.07 1009.79 1010.44 1011.01 1011.52 1011.98 1012.40 1012.81 1013.22
1010.20 1009.85 1009.54 1009.31 1009.15 1009.06 1009.03 1009.02 1009.00 1008.93 1008.77 1008.52 1008.14 1007.66 1007.08 1006.44 1005.76 1005.07 1004.41 1003.80 1003.27 1002.82 1002.46 1002.22 1002.09 1002.08 1002.21 1002.48 1002.88 1003.42 1004.07 1004.81 1005.62 1006.46 1007.30 1008.11 1008.86 1009.54 1010.15 1010.69 1011.17 1011.62 1012.04 1012.46
1010.39 1010.11 1009.87 1009.69 1009.57 1009.51 1009.47 1009.45 1009.40 1009.29 1009.10 1008.82 1008.42 1007.91 1007.32 1006.66 1005.95 1005.23 1004.52 1003.85 1003.23 1002.68 1002.23 1001.87 1001.63 1001.52 1001.55 1001.73 1002.06 1002.54 1003.14 1003.85 1004.63 1005.46 1006.30 1007.11 1007.88 1008.59 1009.23 1009.80 1010.31 1010.78 1011.24 1011.68
1010.66 1010.42 1010.21 1010.05 1009.93 1009.84 1009.77 1009.69 1009.57 1009.40 1009.15 1008.82 1008.39 1007.87 1007.28 1006.63 1005.94 1005.23 1004.52 1003.84 1003.20 1002.62 1002.11 1001.69 1001.38 1001.19 1001.14 1001.23 1001.48 1001.88 1002.41 1003.06 1003.79 1004.58 1005.39 1006.20 1006.96 1007.68 1008.34 1008.93 1009.48 1009.99 1010.47 1010.95
1010.92 1010.68 1010.47 1010.29 1010.13 1009.97 1009.82 1009.64 1009.43 1009.18 1008.86 1008.47 1008.02 1007.51 1006.94 1006.34 1005.71 1005.07 1004.43 1003.81 1003.21 1002.65 1002.15 1001.72 1001.38 1001.14 1001.03 1001.06 1001.23 1001.54 1002.00 1002.56 1003.22 1003.94 1004.70 1005.46 1006.21 1006.91 1007.57 1008.19 1008.76 1009.30 1009.82 1010.33
1011.06 1010.80 1010.55 1010.31 1010.07 1009.82 1009.56 1009.28 1008.97 1008.62 1008.23 1007.81 1007.35 1006.87 1006.36 1005.85 1005.33 1004.81 1004.29 1003.78 1003.29 1002.82 1002.38 1001.99 1001.66 1001.42 1001.27 1001.25 1001.35 1001.58 1001.94 1002.41 1002.98 1003.61 1004.29 1004.99 1005.68 1006.35 1007.00 1007.61 1008.20 1008.76 1009.31 1009.85
1010.98 1010.66 1010.35 1010.03 1009.71 1009.36 1009.00 1008.61 1008.21 1007.79 1007.35 1006.91 1006.48 1006.06 1005.65 1005.26 1004.89 1004.53 1004.18 1003.83 1003.49 1003.15 1002.82 1002.51 1002.24 1002.01 1001.86 1001.80 1001.85 1002.00 1002.26 1002.63 1003.08 1003.61 1004.18 1004.79 1005.41 1006.02 1006.63 1007.23 1007.82 1008.39 1008.96 1009.51
1010.59 1010.22 1009.84 1009.45 1009.05 1008.62 1008.18 1007.72 1007.26 1006.80 1006.36 1005.94 1005.57 1005.24 1004.96 1004.73 1004.53 1004.36 1004.20 1004.04 1003.87 1003.68 1003.48 1003.28 1003.07 1002.89 1002.75 1002.67 1002.66 1002.74 1002.90 1003.16 1003.49 1003.89 1004.35 1004.84 1005.37 1005.91 1006.46 1007.02 1007.58 1008.15 1008.71 1009.27
1009.92 1009.50 1009.07 1008.63 1008.17 1007.70 1007.21 1006.73 1006.25 1005.81 1005.40 1005.05 1004.78 1004.57 1004.44 1004.38 1004.36 1004.38 1004.41 1004.43 1004.43 1004.40 1004.33 1004.23 1004.10 1003.96 1003.84 1003.73 1003.68 1003.68 1003.75 1003.89 1004.10 1004.37 1004.70 1005.07 1005.49 1005.93 1006.41 1006.91 1007.43 1007.97 1008.51 1009.05
1009.05 1008.60 1008.14 1007.67 1007.20 1006.72 1006.24 1005.77 1005.34 1004.95 1004.63 1004.39 1004.23 1004.17 1004.20 1004.30 1004.46 1004.65 1004.85 1005.03 1005.18 1005.28 1005.32 1005.30 1005.23 1005.13 1005.01 1004.89 1004.78 1004.72 1004.69 1004.72 1004.81 1004.95 1005.15 1005.40 1005.70 1006.04 1006.43 1006.85 1007.31 1007.79 1008.29 1008.80
1008.13 1007.66 1007.19 1006.73 1006.27 1005.82 1005.39 1005.00 1004.65 1004.36 1004.15 1004.04 1004.02 1004.11 1004.29 1004.54 1004.84 1005.17 1005.51 1005.81 1006.06 1006.25 1006.36 1006.40 1006.37 1006.28 1006.16 1006.01 1005.86 1005.72 1005.62 1005.55 1005.52 1005.55 1005.62 1005.75 1005.94 1006.17 1006.46 1006.79 1007.17 1007.58 1008.02 1008.46
1007.33 1006.86 1006.40 1005.96 1005.55 1005.16 1004.81 1004.50 1004.26 1004.10 1004.02 1004.05 1004.17 1004.40 1004.70 1005.08 1005.49 1005.92 1006.34 1006.71 1007.02 1007.26 1007.40 1007.46 1007.44 1007.35 1007.20 1007.02 1006.83 1006.63 1006.45 1006.29 1006.17 1006.10 1006.07 1006.09 1006.17 1006.30 1006.49 1006.73 1007.01 1007.34 1007.69 1008.05
1006.78 1006.33 1005.90 1005.50 1005.15 1004.83 1004.57 1004.37 1004.25 1004.21 1004.26 1004.41 1004.66 1005.00 1005.41 1005.86 1006.34 1006.83 1007.28 1007.68 1008.00 1008.24 1008.38 1008.43 1008.39 1008.28 1008.11 1007.89 1007.65 1007.41 1007.17 1006.95 1006.75 1006.60 1006.48 1006.41 1006.40 1006.44 1006.53 1006.67 1006.86 1007.09 1007.34 1007.61
1006.59 1006.17 1005.78 1005.43 1005.13 1004.89 1004.72 1004.62 1004.60 1004.67 1004.84 1005.10 1005.44 1005.85 1006.32 1006.82 1007.33 1007.82 1008.27 1008.65 1008.95 1009.16 1009.27 1009.29 1009.22 1009.08 1008.88 1008.63 1008.36 1008.08 1007.80 1007.53 1007.29 1007.08 1006.90 1006.76 1006.67 1006.63 1006.63 1006.68 1006.77 1006.90 1007.05 1007.21
1006.78 1006.39 1006.05 1005.75 1005.52 1005.34 1005.24 1005.23 1005.29 1005.45 1005.70 1006.02 1006.43 1006.88 1007.38 1007.89 1008.39 1008.85 1009.26 1009.60 1009.85 1010.01 1010.08 1010.06 1009.96 1009.79 1009.56 1009.30 1009.01 1008.71 1008.41 1008.12 1007.85 1007.60 1007.38 1007.19 1007.04 1006.93 1006.86 1006.82 1006.82 1006.84 1006.88 1006.94
1007.26 1006.94 1006.65 1006.41 1006.23 1006.12 1006.08 1006.12 1006.25 1006.46 1006.75 1007.12 1007.55 1008.01 1008.50 1008.99 1009.45 1009.87 1010.23 1010.52 1010.71 1010.82 1010.85 1010.79 1010.66 1010.48 1010.24 1009.97 1009.68 1009.38 1009.07 1008.77 1008.49 1008.22 1007.97 1007.75 1007.55 1007.39 1007.25 1007.14 1007.05 1006.98 1006.91 1006.86
1007.93 1007.69 1007.47 1007.29 1007.16 1007.10 1007.11 1007.20 1007.36 1007.60 1007.92 1008.30 1008.72 1009.17 1009.63 1010.08 1010.50 1010.87 1011.17 1011.40 1011.55 1011.62 1011.61 1011.53 1011.39 1011.20 1010.96 1010.70 1010.42 1010.13 1009.83 1009.53 1009.24 1008.97 1008.70 1008.45 1008.22 1008.01 1007.82 1007.64 1007.47 1007.31 1007.16 1007.00
1008.65 1008.49 1008.35 1008.25 1008.18 1008.17 1008.22 1008.34 1008.53 1008.79 1009.10 1009.47 1009.88 1010.30 1010.73 1011.13 1011.50 1011.81 1012.07 1012.25 1012.36 1012.41 1012.38 1012.30 1012.16 1011.98 1011.76 1011.51 1011.25 1010.97 1010.69 1010.40 1010.11 1009.83 1009.55 1009.28 1009.02 1008.77 1008.53 1008.29 1008.06 1007.83 1007.59 1007.34
1009.28 1009.23 1009.18 1009.15 1009.15 1009.19 1009.28 1009.43 1009.64 1009.91 1010.23 1010.58 1010.96 1011.35 1011.74 1012.10 1012.42 1012.69 1012.91 1013.06 1013.16 1013.19 1013.16 1013.09 1012.96 1012.81 1012.61 1012.39 1012.15 1011.89 1011.62 1011.33 1011.04 1010.75 1010.45 1010.16 1009.88 1009.59 1009.31 1009.03 1008.75 1008.45 1008.14 1007.82
1009.76 1009.80 1009.85 1009.90 1009.97 1010.07 1010.21 1010.39 1010.62 1010.90 1011.22 1011.56 1011.92 1012.28 1012.63 1012.95 1013.24 1013.48 1013.68 1013.82 1013.90 1013.94 1013.93 1013.87 1013.77 1013.64 1013.48 1013.28 1013.06 1012.81 1012.54 1012.26 1011.96 1011.65 1011.34 1011.03 1010.71 1010.40 1010.09 1009.77 1009.44 1009.10 1008.74 1008.35
1010.04 1010.18 1010.31 1010.43 1010.57 1010.73 1010.92 1011.15 1011.41 1011.70 1012.02 1012.36 1012.71 1013.05 1013.38 1013.68 1013.94 1014.17 1014.35 1014.48 1014.58 1014.62 1014.63 1014.60 1014.53 1014.43 1014.29 1014.11 1013.90 1013.67 1013.40 1013.11 1012.80 1012.47 1012.14 1011.80 1011.46 1011.12 1010.77 1010.43 1010.07 1009.69 1009.28 1008.85
1010.14 1010.35 1010.55 1010.75 1010.96 1011.18 1011.42 1011.69 1011.98 1012.30 1012.64 1012.98 1013.33 1013.66 1013.97 1014.26 1014.51 1014.73 1014.91 1015.05 1015.15 1015.21 1015.24 1015.23 1015.19 1015.11 1014.99 1014.83 1014.64 1014.40 1014.13 1013.83 1013.50 1013.15 1012.79 1012.43 1012.06 1011.70 1011.33 1010.96 1010.57 1010.17 1009.73 1009.26
1010.12 1010.38 1010.63 1010.88 1011.14 1011.42 1011.71 1012.03 1012.36 1012.71 1013.08 1013.44 1013.79 1014.13 1014.44 1014.72 1014.97 1015.18 1015.36 1015.51 1015.62 1015.70 1015.74 1015.76 1015.73 1015.67 1015.57 1015.42 1015.23 1014.99 1014.71 1014.40 1014.05 1013.69 1013.31 1012.92 1012.53 1012.14 1011.76 1011.37 1010.96 1010.54 1010.08 1009.58
Thickness
5699 5702 5702 5699 5698 5698 5695 5696 5692 5695 5696 5698 5698 5696 5694 5692 5689 5687 5685 5683 5681 5681 5681 5681 5681 5680 5680 5681 5682 5683 5683 5682 5682 5682 5682 5682 5681 5681 5680 5679 5679 5678 5676 5675
5686 5692 5691 5688 5692 5692 5691 5691 5690 5689 5688 5696 5695 5691 5686 5683 5681 5678 5676 5674 5673 5673 5673 5673 5674 5674 5674 5675 5676 5676 5677 5677 5677 5677 5676 5676 5675 5674 5674 5674 5673 5672 5671 5670
5678 5686 5680 5676 5685 5685 5685 5686 5683 5679 5683 5685 5682 5679 5677 5675 5674 5671 5669 5667 5667 5666 5666 5667 5668 5668 5668 5669 5670 5669 5670 5672 5671 5671 5671 5670 5670 5668 5668 5668 5667 5666 5665 5665
5672 5667 5655 5676 5685 5682 5677 5678 5678 5676 5676 5675 5674 5673 5671 5669 5666 5664 5662 5661 5660 5660 5661 5662 5662 5663 5663 5664 5664 5664 5665 5666 5665 5665 5664 5664 5663 5662 5661 5661 5661 5659 5659 5658
5663 5660 5664 5669 5673 5671 5665 5665 5670 5667 5666 5667 5668 5666 5663 5661 5659 5657 5657 5656 5655 5655 5655 5655 5656 5657 5657 5658 5658 5659 5659 5660 5660 5660 5659 5657 5656 5655 5655 5654 5654 5653 5653 5652
5656 5649 5648 5659 5668 5668 5659 5654 5664 5661 5658 5658 5657 5653 5655 5654 5652 5651 5652 5651 5650 5650 5649 5649 5650 5651 5650 5651 5652 5653 5654 5654 5654 5653 5652 5652 5651 5650 5649 5648 5648 5648 5648 5646
5648 5645 5651 5660 5660 5656 5642 5647 5654 5654 5652 5650 5648 5648 5648 5648 5646 5646 5646 5646 5645 5645 5644 5644 5645 5645 5644 5645 5645 5646 5648 5649 5647 5647 5647 5647 5645 5644 5643 5642 5642 5642 5641 5640
5641 5637 5641 5654 5652 5644 5644 5648 5648 5647 5646 5643 5641 5641 5641 5640 5639 5639 5639 5639 5640 5639 5639 5639 5639 5639 5638 5639 5640 5640 5641 5642 5641 5640 5641 5641 5639 5638 5637 5636 5635 5636 5636 5635
5640 5639 5644 5648 5645 5644 5643 5641 5641 5640 5640 5637 5634 5634 5634 5632 5632 5633 5633 5633 5632 5632 5632 5632 5633 5633 5633 5633 5634 5634 5634 5634 5635 5634 5634 5635 5633 5633 5633 5632 5632 5632 5632 5631
5634 5639 5640 5640 5640 5638 5637 5636 5636 5635 5633 5632 5629 5628 5627 5626 5626 5626 5626 5626 5625 5625 5625 5624 5625 5626 5627 5628 5629 5629 5629 5629 5629 5629 5629 5629 5629 5630 5630 5629 5629 5629 5628 5627
5628 5633 5633 5634 5633 5632 5631 5631 5630 5629 5627 5626 5624 5623 5621 5620 5620 5620 5620 5620 5619 5618 5617 5617 5617 5618 5620 5621 5622 5623 5623 5624 5625 5626 5626 5624 5625 5624 5625 5623 5622 5621 5623 5622
5623 5626 5625 5625 5626 5626 5624 5623 5623 5622 5621 5621 5620 5618 5617 5615 5614 5614 5614 5613 5612 5611 5610 5610 5610 5610 5612 5614 5615 5616 5617 5618 5620 5622 5622 5622 5621 5619 5616 5615 5613 5612 5611 5611
5619 5622 5622 5621 5620 5620 5619 5619 5619 5617 5616 5615 5615 5614 5612 5610 5609 5608 5607 5607 5605 5604 5603 5603 5603 5603 5604 5606 5607 5608 5610 5612 5615 5616 5617 5617 5616 5616 5614 5610 5607 5605 5604 5603
5614 5613 5611 5612 5613 5613 5613 5614 5613 5612 5611 5610 5608 5607 5606 5604 5603 5601 5600 5600 5599 5598 5597 5597 5596 5596 5598 5599 5600 5601 5604 5605 5607 5609 5610 5612 5611 5611 5611 5610 5607 5606 5601 5597
5607 5606 5606 5607 5607 5607 5607 5607 5606 5605 5604 5604 5603 5601 5599 5597 5595 5594 5593 5593 5592 5592 5592 5591 5591 5590 5591 5593 5594 5595 5598 5600 5600 5602 5604 5605 5606 5606 5606 5605 5603 5603 5601 5596
5600 5601 5600 5600 5600 5600 5600 5600 5599 5599 5598 5597 5596 5594 5593 5591 5589 5588 5587 5587 5586 5585 5585 5585 5584 5584 5585 5586 5587 5589 5591 5590 5591 5595 5597 5598 5598 5598 5598 5597 5596 5596 5595 5594
5593 5593 5593 5593 5594 5594 5594 5594 5594 5593 5592 5591 5589 5588 5586 5584 5583 5582 5581 5581 5580 5580 5579 5579 5578 5579 5580 5580 5582 5585 5587 5587 5583 5587 5590 5591 5590 5590 5590 5589 5589 5589 5589 5587
5591 5591 5591 5590 5590 5589 5589 5589 5588 5587 5585 5584 5584 5582 5580 5578 5577 5576 5576 5575 5574 5574 5574 5573 5573 5574 5574 5575 5576 5579 5582 5583 5583 5582 5583 5583 5582 5583 5583 5583 5583 5582 5581 5580
5587 5586 5586 5585 5586 5585 5585 5584 5582 5581 5579 5578 5576 5575 5574 5573 5572 5571 5570 5569 5569 5568 5568 5569 5566 5568 5569 5570 5569 5573 5576 5577 5577 5577 5576 5573 5574 5575 5576 5576 5575 5574 5574 5573
5582 5582 5582 5581 5581 5581 5579 5578 5577 5575 5573 5572 5570 5569 5567 5566 5566 5566 5565 5564 5564 5565 5564 5563 5564 5564 5564 5565 5562 5568 5571 5571 5572 5571 5570 5570 5568 5568 5568 5569 5568 5567 5566 5565
5577 5577 5577 5577 5576 5576 5575 5573 5571 5569 5568 5567 5565 5563 5562 5561 5561 5560 5559 5559 5558 5558 5558 5556 5557 5558 5559 5558 5556 5562 5564 5564 5565 5565 5564 5563 5562 5561 5561 5560 5559 5558 5558 5557
5572 5572 5572 5572 5572 5570 5570 5568 5566 5565 5563 5561 5560 5559 5557 5556 5556 5555 5554 5554 5553 5549 5551 5552 5553 5550 5550 5549 5553 5555 5556 5557 5556 5556 5556 5556 5555 5553 5552 5551 5551 5551 5550 5550
5567 5568 5568 5567 5567 5566 5564 5563 5561 5559 5557 5556 5555 5553 5553 5552 5553 5551 5549 5549 5548 5544 5545 5546 5543 5540 5539 5543 5546 5548 5549 5549 5549 5549 5549 5548 5547 5546 5545 5544 5543 5543 5543 5543
5563 5563 5563 5563 5562 5560 5558 5557 5555 5553 5552 5551 5550 5549 5548 5547 5546 5546 5545 5541 5538 5536 5539 5536 5533 5531 5531 5537 5539 5540 5541 5542 5542 5543 5543 5543 5541 5540 5539 5538 5537 5537 5537 5536
5560 5559 5559 5558 5556 5555 5553 5552 5550 5548 5548 5547 5545 5544 5543 5542 5541 5540 5538 5536 5532 5530 5533 5530 5526 5524 5527 5531 5532 5533 5534 5534 5535 5536 5536 5535 5535 5534 5533 5532 5532 5531 5531 5530
5556 5556 5556 5553 5552 5551 5551 5549 5548 5546 5545 5543 5541 5540 5539 5537 5535 5533 5531 5530 5529 5525 5528 5528 5525 5522 5524 5526 5527 5527 5527 5527 5528 5528 5528 5528 5528 5527 5527 5526 5525 5525 5524 5523
5554 5553 5552 5551 5550 5548 5548 5546 5544 5543 5541 5539 5537 5535 5534 5532 5530 5528 5527 5525 5524 5523 5523 5523 5522 5521 5522 5522 5522 5521 5521 5522 5522 5523 5523 5522 5522 5521 5521 5519 5519 5518 5517 5516